Location: Unspecified
(0.0000°N, 0.0000°E)
Time: 00:22:44
(UTC+00:00)

DMSP B5D2-3 - Pass Details

Date: 10 June 2023
Orbit: 818 x 838 km, 98.7° (Epoch: 28 September)

Event Time Altitude Azimuth Distance (km) Brightness Sun altitude
Rises 18:24:20 0° 355° (N) 3,343 8.7 -5.7°
Reaches altitude 10° 18:26:51 10° 347° (NNW) 2,417 8.1 -6.3°
Maximum altitude 18:31:39 34° 283° (WNW) 1,326 7.1 -7.4°
Drops below altitude 10° 18:36:31 10° 219° (SW) 2,438 7.8 -8.5°
Sets 18:39:04 0° 209° (SSW) 3,377 8.4 -9.1°
